sat.trackr.live / text

‹ back to catalog

STARLINK-35870

NORAD 66572 · 2025-268R

PAYLOAD ACTIVE UNKNOWN

§ Identity

Operator
Country
US
Launch date
2025-11-21
Launch site
AFETR
Launch vehicle
Mass (kg)
RCS (m²)

Purposes: comms

External: N2YO · Heavens-Above · Gunter

§ Orbital elements

Epoch: 2026-05-24T18:46:59.257920Z

Period
94.27 min
Inclination
43.0004°
Eccentricity
0.0001537
Mean motion
15.27554131 rev/d
Perigee alt
482.1 km
Apogee alt
484.2 km
Semi-major
6,861.3 km
B*
8.0670e-4
RAAN
277.6432°
Arg perigee
273.8714°
Mean anomaly
86.1962°
Rev number
2,959

§ Raw data

STARLINK-358701 66572U 25268R   26144.78263030  .00021985  00000+0  80670-3 0  99932 66572  43.0004 277.6432 0001537 273.8714  86.1962 15.27554131 29599

JSON: /api/v1/satellites/66572 · /tle

For live sub-satellite position, see the globe view (requires WebGL).

§ Visibility from observer

Set your observer location to see the next 7 days of passes ≥ 10°. The values pass through the URL so the page stays shareable.

No JS? Fill the form by hand. The geolocation button needs JavaScript.